Showing default

COSMOS 2212, 22183

Orbit data source: Space-Track

COSMOS 2212, 22183 is a payload satellite owned by VKS (CIS) in LEO that was launched on Tue, 20 Oct 1992 UTC via a TSIKLON-3 launch vehicle from the Plesetsk Missile And Space Complex (PKMTR). Payloads include a variety of satellites, spacecraft, and rockets equipped with specific instruments for various scientific and technological missions. These include communications satellites like Starlink; space stations such as the ISS; scientific satellites like the Hubble; Earth observation satellites from companies like Planet Labs, Umbra, and HawkEye 360; GPS; miniature CubeSats for education and research; and military/defense satellites.

Loading next visibility...
COSMOS 2212 details
Identifier
22183, 1992-068B
Orbit
LEO
Last TLE update14 hours ago
Origin
Flag of CISVKS (CIS)
ManufacturerNPO PM
MissionDefense Communications
Bus & MotorSTRELA-3, Unknown motor
Mass225 kg wet, 225 kg dry
Launch date (UTC)
1992-10-20 (32 years ago)
Launch vehicle
TSIKLON-3
Launch site
Plesetsk Missile And Space Complex (PKMTR)
Object type
Payload
Rocket body
Debris
Shape & HBRCyl, 1.6 m
Radar Cross Section1.257 m², Large (>1 m²)

Expand to show TLE details & history

TLE from 14 hours ago
0 COSMOS 2212
1 22183U 92068B   24325.81847167  .00000024  00000-0  72765-4 0  9996
2 22183  82.5885 334.6153 0003232  51.4846 308.6535 12.63127045479198
Epoch: 2024-11-20T19:38Z
Definitive object data (Epoch: 2024-11-20T19:38:35.952Z)
Latitude-0.00001°
Longitude-20.3436°
Altitude1,411.223 km
Speed7.156 km/s
True Right ascension22h 18m 27s
True Declination0° 00' 00"
Sunlit
Object was in daylight at TLE epoch
Visualization TLE readout
Latitude64.5048°
Longitude-4.95694°
Altitude1,418.725 km
Speed7.158 km/s
Apparent Right ascension20h 18m 00s
Apparent Declination23° 56' 49"
Sunlit
Object is in daylight
Visualization observer readout
Local Sidereal Time06:20:42
Azimuth331.449° NNW
Elevation-20.53°
Doppler factor1
Orbital elements
Apogee altitude1,409.899 km
Perigee altitude1,404.867 km
Semi-major axis7,785.52 km
Eccentricity0.0003232
Inclination82.5885°
RAAN334.6153°
Arg. of periapsis51.4846°
True anomaly308.62457°
Mean anomaly308.6535°
Eccentric anomaly308.63904°
Mean motion3.15945 °/min
BSTAR0.000072765
Orbital period113.94 mins
Loading maneuver chart data...
Loading historical data...
Loading historical data...
Loading historical data...
Loading historical data...
Loading historical data...
Loading historical data...
Loading historical data...

COSMOS 2212 Visibility forecast

Observer location: undefined°, undefined

Span
Click to sort rows by Start time (UTC) header in descending order
Start Az.
Max El. time (UTC)
Max El. Az.
Max El.
End time (UTC)
End Az.
13 mins2024-11-21 11:27:42.440Z12.591° NNE2024-11-21 11:34:42.440Z76.754° E28.38°2024-11-21 11:40:42.440Z129.063° SE
14 mins2024-11-21 13:22:42.440Z339.745° N2024-11-21 13:29:42.440Z264.914° W37.877°2024-11-21 13:36:42.440Z199.585° SSW
12 mins2024-11-22 00:16:42.440Z136.23° SSE2024-11-22 00:21:42.440Z90.906° ESE27.931°2024-11-22 00:28:42.440Z28.226° NE
14 mins2024-11-22 02:10:42.440Z214.421° SW2024-11-22 02:16:42.440Z282.813° WNW37.919°2024-11-22 02:24:42.440Z358.108° N
|